• In Italy
  • List of Countries
  • For 7 days
  • Water Temperature
  • Satellite Maps
  • Weather Map
  • Weather Widgets
  • user-avatar
    Login

    Hourly Weather Rechnaya

    Today, 19 June, Tuesday

    Time Temperature Precipitation Wind Pressure Humidity
    00:00 +17°C° 0 mm 2 mps 752 mmHg 75%
    01:00 +17°C° 0 mm 2 mps 752 mmHg 76%
    02:00 +17°C° 0 mm 2 mps 752 mmHg 77%
    03:00 +18°C° 0 mm 1 mps 751 mmHg 74%
    04:00 +18°C° 0 mm 1 mps 751 mmHg 74%
    05:00 +19°C° 0 mm 1 mps 751 mmHg 74%
    06:00 +19°C° 0 mm 2 mps 751 mmHg 73%
    07:00 +20°C° 0 mm 2 mps 751 mmHg 70%
    08:00 +23°C° 0 mm 2 mps 751 mmHg 67%
    09:00 +24°C° 0 mm 2 mps 751 mmHg 65%
    10:00 +25°C° 0 mm 2 mps 751 mmHg 59%
    11:00 +26°C° 0 mm 3 mps 751 mmHg 53%
    12:00 +28°C° 0 mm 3 mps 751 mmHg 47%
    13:00 +27°C° 0 mm 2 mps 751 mmHg 50%
    14:00 +27°C° 0 mm 2 mps 751 mmHg 54%
    15:00 +27°C° 0 mm 2 mps 750 mmHg 57%
    16:00 +26°C° 0 mm 2 mps 750 mmHg 60%
    17:00 +26°C° 0 mm 2 mps 750 mmHg 63%
    18:00 +25°C° 0 mm 2 mps 750 mmHg 67%
    19:00 +24°C° 0 mm 2 mps 750 mmHg 71%
    20:00 +21°C° 0 mm 2 mps 749 mmHg 75%
    21:00 +20°C° 0 mm 2 mps 749 mmHg 79%
    22:00 +19°C° 0.3 mm 2 mps 749 mmHg 82%
    23:00 +18°C° 0.3 mm 3 mps 749 mmHg 85%

    Tomorrow, 20 June, Wednesday

    Time Temperature Precipitation Wind Pressure Humidity
    00:00 +17°C° 0.3 mm 3 mps 748 mmHg 89%
    01:00 +17°C° 0.4 mm 3 mps 748 mmHg 91%
    02:00 +17°C° 0.4 mm 3 mps 748 mmHg 93%
    03:00 +17°C° 0.4 mm 3 mps 747 mmHg 95%
    04:00 +17°C° 0.1 mm 4 mps 747 mmHg 94%
    05:00 +18°C° 0.1 mm 4 mps 746 mmHg 92%
    06:00 +19°C° 0.1 mm 5 mps 745 mmHg 91%
    07:00 +19°C° 0.6 mm 5 mps 745 mmHg 89%
    08:00 +20°C° 0.6 mm 6 mps 744 mmHg 88%
    09:00 +21°C° 0.6 mm 6 mps 744 mmHg 86%
    10:00 +20°C° 1 mm 7 mps 744 mmHg 85%
    11:00 +20°C° 1 mm 7 mps 744 mmHg 84%
    12:00 +18°C° 1 mm 7 mps 744 mmHg 83%
    13:00 +20°C° 0.1 mm 7 mps 744 mmHg 72%
    14:00 +21°C° 0.1 mm 8 mps 744 mmHg 60%
    15:00 +22°C° 0.1 mm 8 mps 745 mmHg 49%
    16:00 +21°C° 0 mm 7 mps 745 mmHg 52%
    17:00 +20°C° 0 mm 6 mps 745 mmHg 56%
    18:00 +20°C° 0 mm 5 mps 746 mmHg 59%
    19:00 +18°C° 0 mm 4 mps 746 mmHg 61%
    20:00 +17°C° 0 mm 4 mps 746 mmHg 64%
    21:00 +14°C° 0 mm 4 mps 746 mmHg 66%
    22:00 +13°C° 0.2 mm 4 mps 746 mmHg 71%
    23:00 +13°C° 0.2 mm 4 mps 746 mmHg 77%

    Day after tomorrow, 21 June, Thursday

    Time Temperature Precipitation Wind Pressure Humidity
    00:00 +12°C° 0.2 mm 4 mps 746 mmHg 82%
    01:00 +12°C° 0 mm 4 mps 747 mmHg 82%
    02:00 +10°C° 0 mm 5 mps 747 mmHg 81%
    03:00 +10°C° 0 mm 5 mps 747 mmHg 81%
    04:00 +12°C° 0 mm 5 mps 747 mmHg 78%
    05:00 +13°C° 0 mm 6 mps 747 mmHg 74%
    06:00 +14°C° 0 mm 7 mps 747 mmHg 71%
    07:00 +15°C° 0 mm 7 mps 747 mmHg 65%
    08:00 +16°C° 0 mm 8 mps 747 mmHg 58%
    09:00 +18°C° 0 mm 9 mps 746 mmHg 52%
    10:00 +19°C° 0 mm 9 mps 747 mmHg 50%
    11:00 +19°C° 0 mm 9 mps 747 mmHg 48%
    12:00 +21°C° 0 mm 9 mps 747 mmHg 45%
    13:00 +21°C° 0 mm 8 mps 747 mmHg 45%
    14:00 +22°C° 0 mm 8 mps 747 mmHg 45%
    15:00 +22°C° 0 mm 7 mps 747 mmHg 45%
    16:00 +22°C° 0 mm 6 mps 748 mmHg 49%
    17:00 +21°C° 0 mm 5 mps 748 mmHg 52%
    18:00 +21°C° 0 mm 5 mps 748 mmHg 56%
    19:00 +19°C° 0 mm 4 mps 748 mmHg 58%
    20:00 +17°C° 0 mm 4 mps 749 mmHg 60%
    21:00 +15°C° 0 mm 4 mps 749 mmHg 63%
    22:00 +14°C° 0 mm 4 mps 750 mmHg 65%
    23:00 +14°C° 0 mm 4 mps 750 mmHg 68%

    22 June, Friday

    Time Temperature Precipitation Wind Pressure Humidity
    00:00 +13°C° 0 mm 3 mps 750 mmHg 71%
    01:00 +12°C° 0 mm 3 mps 751 mmHg 76%
    02:00 +11°C° 0 mm 3 mps 751 mmHg 81%
    03:00 +11°C° 0 mm 3 mps 751 mmHg 86%
    04:00 +12°C° 0 mm 3 mps 752 mmHg 83%
    05:00 +13°C° 0 mm 3 mps 752 mmHg 81%
    06:00 +16°C° 0 mm 3 mps 752 mmHg 78%
    07:00 +17°C° 0 mm 3 mps 752 mmHg 72%
    08:00 +19°C° 0 mm 3 mps 752 mmHg 66%
    09:00 +21°C° 0 mm 3 mps 753 mmHg 60%
    10:00 +22°C° 0 mm 3 mps 752 mmHg 58%
    11:00 +25°C° 0 mm 3 mps 752 mmHg 55%
    12:00 +26°C° 0 mm 3 mps 752 mmHg 53%
    13:00 +26°C° 0 mm 3 mps 752 mmHg 54%
    14:00 +27°C° 0 mm 3 mps 752 mmHg 54%
    15:00 +28°C° 0 mm 3 mps 752 mmHg 54%
    16:00 +27°C° 0 mm 3 mps 752 mmHg 59%
    17:00 +27°C° 0 mm 3 mps 752 mmHg 63%
    18:00 +27°C° 0 mm 2 mps 751 mmHg 67%
    19:00 +25°C° 0 mm 2 mps 752 mmHg 74%
    20:00 +23°C° 0 mm 2 mps 752 mmHg 81%
    21:00 +20°C° 0 mm 2 mps 752 mmHg 88%
    22:00 +19°C° 0 mm 2 mps 752 mmHg 90%
    23:00 +19°C° 0 mm 2 mps 752 mmHg 91%

    23 June, Saturday

    Time Temperature Precipitation Wind Pressure Humidity
    00:00 +18°C° 0 mm 2 mps 752 mmHg 93%
    01:00 +18°C° 0 mm 2 mps 752 mmHg 93%
    02:00 +18°C° 0 mm 2 mps 752 mmHg 94%
    03:00 +17°C° 0 mm 2 mps 752 mmHg 94%
    04:00 +18°C° 0 mm 2 mps 752 mmHg 91%
    05:00 +20°C° 0 mm 2 mps 753 mmHg 87%
    06:00 +21°C° 0 mm 2 mps 753 mmHg 84%
    07:00 +22°C° 0 mm 3 mps 753 mmHg 78%
    08:00 +25°C° 0 mm 3 mps 753 mmHg 72%
    09:00 +27°C° 0 mm 3 mps 753 mmHg 66%
    10:00 +28°C° 0 mm 4 mps 753 mmHg 62%
    11:00 +29°C° 0 mm 4 mps 753 mmHg 58%
    12:00 +29°C° 0 mm 4 mps 753 mmHg 54%
    13:00 +30°C° 0 mm 4 mps 752 mmHg 53%
    14:00 +30°C° 0 mm 4 mps 752 mmHg 52%
    15:00 +30°C° 0 mm 4 mps 752 mmHg 52%
    16:00 +30°C° 0 mm 3 mps 752 mmHg 55%
    17:00 +29°C° 0 mm 3 mps 752 mmHg 59%
    18:00 +29°C° 0 mm 2 mps 752 mmHg 63%
    19:00 +27°C° 0 mm 2 mps 752 mmHg 69%
    20:00 +25°C° 0 mm 2 mps 752 mmHg 75%
    21:00 +23°C° 0 mm 2 mps 752 mmHg 81%
    22:00 +21°C° 0 mm 2 mps 752 mmHg 83%
    23:00 +20°C° 0 mm 2 mps 752 mmHg 85%

    24 June, Sunday

    Time Temperature Precipitation Wind Pressure Humidity
    00:00 +20°C° 0 mm 2 mps 752 mmHg 87%
    01:00 +19°C° 0 mm 2 mps 752 mmHg 88%
    02:00 +19°C° 0 mm 2 mps 752 mmHg 89%
    03:00 +18°C° 0 mm 2 mps 752 mmHg 90%
    04:00 +20°C° 0 mm 3 mps 752 mmHg 86%
    05:00 +21°C° 0 mm 3 mps 752 mmHg 81%
    06:00 +22°C° 0 mm 3 mps 752 mmHg 77%
    07:00 +25°C° 0 mm 4 mps 752 mmHg 71%
    08:00 +26°C° 0 mm 4 mps 752 mmHg 65%
    09:00 +28°C° 0 mm 5 mps 752 mmHg 59%
    10:00 +29°C° 0 mm 5 mps 751 mmHg 55%
    11:00 +30°C° 0 mm 6 mps 751 mmHg 51%
    12:00 +30°C° 0 mm 6 mps 751 mmHg 47%
    13:00 +30°C° 0 mm 5 mps 751 mmHg 50%
    14:00 +29°C° 0 mm 5 mps 751 mmHg 52%
    15:00 +28°C° 0 mm 4 mps 751 mmHg 54%
    16:00 +27°C° 0 mm 4 mps 751 mmHg 58%
    17:00 +26°C° 0 mm 3 mps 751 mmHg 62%
    18:00 +25°C° 0 mm 3 mps 752 mmHg 65%
    19:00 +22°C° 0.5 mm 3 mps 752 mmHg 73%
    20:00 +21°C° 0.5 mm 3 mps 752 mmHg 81%
    21:00 +19°C° 0.5 mm 3 mps 752 mmHg 88%
    22:00 +19°C° 0.3 mm 3 mps 752 mmHg 91%
    23:00 +18°C° 0.3 mm 3 mps 752 mmHg 93%
    Show more